Preview of NWS' New Version of Forecast
This preview is not operational and should not be used for support decisions.

Regional Weather Roundup (RWR)

Issued by National Weather Service (NWS)

                            
000
ASUS43 KMKX 220411
RWRWI 

WISCONSIN REGIONAL WEATHER ROUNDUP
NATIONAL WEATHER SERVICE MILWAUKEE/SULLIVAN WI
1100 PM CDT SAT SEP 21 2019

NOTE: "FAIR" INDICATES FEW OR NO CLOUDS BELOW 12,000 FEET WITH NO
SIGNIFICANT WEATHER AND/OR OBSTRUCTIONS TO VISIBILITY.

WIZ001-002-006>008-014>016-023>028-220500-
NORTHWEST WISCONSIN
  
CITY           SKY/WX    TMP DP  RH WIND       PRES   REMARKS
SUPERIOR ARPT  FAIR      60  60 100 CALM      29.72S                  
ASHLAND        FAIR      68  63  84 SW10      29.75R                  
HAYWARD        MOCLDY    64  63  96 SW3       29.79R                  
SIREN          MOCLDY    66  65  97 S3        29.78R                  
CUMBERLAND     CLOUDY    70  66  88 SW8       29.80R                  
RICE LAKE      CLOUDY    73  57  58 S12       29.81R                  
CHETEK         CLOUDY    73  70  91 SW3       29.81R                  
LADYSMITH      CLOUDY    73  71  95 S7        29.83S                  
EAU CLAIRE     MOCLDY    74  68  81 SW8       29.81R                  
MENOMONIE      FAIR      69  67  93 S9        29.81R                  
NEW RICHMOND   MOCLDY    72  68  88 SW8       29.81R                  
OSCEOLA        FAIR      72  70  92 W10       29.82R                  
$$
 
WIZ003>005-009-010-017-018-220500-
NORTH CENTRAL WISCONSIN
  
CITY           SKY/WX    TMP DP  RH WIND       PRES   REMARKS
MANITOWISH WTR RAIN      64  64 100 CALM      29.82F                  
ARBOR VITAE    CLOUDY    72  67  84 CALM      29.84S                  
WOODRUFF       CLOUDY    72  67  84 CALM      29.84S                  
RHINELANDER    CLOUDY    70  68  93 SW9       29.86S                  
EAGLE RIVER    CLOUDY    69  69 100 SW7       29.85R                  
LAND O LAKES   NOT AVBL                                               
PHILLIPS       CLOUDY    70  70 100 S7        29.82S                  
TOMAHAWK       CLOUDY    69  67  95 CALM      29.85S                  
MEDFORD        CLOUDY    69  68  97 S7        29.86S                  
MERRILL        CLOUDY    71  71 100 SW9       29.86S                  
$$
 
WIZ029-030-035-036-043>047-220500-
CENTRAL WISCONSIN
  
CITY           SKY/WX    TMP DP  RH WIND       PRES   REMARKS
WAUSAU         LGT RAIN  71  70  96 SW8       29.85S                  
MOSINEE        CLOUDY   N/A N/A N/A S10       29.88R                  
MARSHFIELD     CLOUDY    72  70  93 SW8       29.86S                  
STEVENS POINT  RAIN      70  70 100 S9        29.88R                  
WAUPACA        CLOUDY    75  71  87 S8G17     29.89S                  
WAUTOMA        CLOUDY    74  70  87 S8        29.89F                  
WISC RAPIDS    CLOUDY    72  70  93 S7        29.87S                  
CAMP DOUGLAS   DRIZZLE   73  73 100 SW10      29.87S                  
$$
 
WIZ011>013-019>022-031-037>040-048>050-220500-
NORTHEAST WISCONSIN
  
CITY           SKY/WX    TMP DP  RH WIND       PRES   REMARKS
ANTIGO         CLOUDY    69  69 100 SW14      29.87F                  
SHAWANO        DRIZZLE   74  71  90 S5        29.87S                  
OCONTO         CLOUDY    72  69  90 S7        29.87S                  
STURGEON BAY   CLOUDY    68  67  96 S8        29.91F                  
GREEN BAY      MOCLDY    74  69  85 S10       29.89F                  
MANITOWOC      CLOUDY    68  66  93 S3        29.92F                  
APPLETON       CLOUDY    72  70  94 S13       29.89S                  
CLINTONVILLE   CLOUDY    73  68  84 S9        29.87F                  
OSHKOSH        CLOUDY    74  69  85 S10G20    29.90S                  
$$
 
WIZ032>034-041-042-053>061-220500-
SOUTHWEST WISCONSIN
  
CITY           SKY/WX    TMP DP  RH WIND       PRES   REMARKS
LA CROSSE      NOT AVBL                                               
SPARTA         RAIN      69  67  93 SW8       29.87R                  
VIROQUA        CLOUDY    73  73 100 SW10G18   29.89S                  
BOSCOBEL       CLOUDY    77  69  76 S13G29    29.88S                  
PRAIRIE DU CHI CLOUDY    74  68  80 S13G22    29.88R                  
PLATTEVILLE    CLOUDY    72  72 100 S14G21    29.95S                  
$$

WIZ056-057-062-063-064-067-068-220500-
SOUTH CENTRAL WISCONSIN
  
CITY           SKY/WX    TMP DP  RH WIND       PRES   REMARKS
REEDSBURG      CLOUDY    73  73  99 SW14      29.89S                  
BARABOO/DELLS  CLOUDY    72  68  88 SW12G22   29.90R                  
LONE ROCK      CLOUDY    75  69  81 S14G24    29.88F                  
MINERAL POINT  CLOUDY    73  73 100 S16G23    29.93F                  
MADISON        CLOUDY    73  69  87 S16G24    29.92S                  
MIDDLETON      CLOUDY    74  69  83 SW14G20   29.93F                  
WATERTOWN      CLOUDY    72  72 100 SW13G20   29.94S                  
MONROE         CLOUDY    71  70  96 SW18G25   29.96F                  
JANESVILLE     CLOUDY    72  72 100 S13       29.97S                  
$$
 
WIZ051-052-058>065-066-070>072-220500-
SOUTHEAST WISCONSIN
  
CITY           SKY/WX    TMP DP  RH WIND       PRES   REMARKS
MILWAUKEE      CLOUDY    74  69  85 SW14      29.95F                  
WAUKESHA       CLOUDY    70  68  94 SW10      29.97F                  
MILWAUKEE/TIMM CLOUDY    72  64  78 SW16      29.95F                  
RACINE         CLOUDY    73  69  87 SW12G21   29.98F                  
KENOSHA        CLOUDY    74  72  93 SW15G24   29.97F                  
FOND DU LAC    CLOUDY    75  69  81 SW12G22   29.92S                  
SHEBOYGAN      CLOUDY    74  69  85 S10       29.92F                  
WEST BEND      CLOUDY    72  70  94 SW12      29.94S                  
JUNEAU         CLOUDY    71  70  95 S14G20    29.95R                  
$$

LSZ147-162-220500-
LAKE SUPERIOR
  
STATION/POSITION TIME  TEMP    WIND        PRES    WAVE
                       AIR SEA DIR/SP/G            HT/PER
                 (UTC) (F)     (DEG/KT/KT) (MB)    (FT/S)
W MID LAKE BUOY  0350   63 54  240/ 14/ 16 1005.3R   2/ 4
DEVILS ISLAND    0300   64     230/  7/  8 1005.5R
SAXON HARBOR     0340   70     200/  9/ 16 1006.8R
$$
 
LMZ867-665-643>646-220500-
LAKE MICHIGAN
  
STATION/POSITION TIME  TEMP    WIND        PRES    WAVE
                       AIR SEA DIR/SP/G            HT/PER
                 (UTC) (F)     (DEG/KT/KT) (MB)    (FT/S)
CHAMBERS ISLAND  0340   70     130/  6/ 14   N/A
N MID LAKE BUOY  0350   66 63  190/ 19/ 23 1012.4F   6/ 6
NORTHPORT PIER   0340   68     140/  7/ 12 1011.9F
KEWAUNEE LAKESHO 0330   62     180/ 10/ 12 1012.3F
SHEBOYGAN LAKESH 0400   65     180/ 17/ 18 1013.0F
PORT WASHINGTON  0340   74     210/  6/ 12 1014.6F
S MID LAKE BUOY  0350   71 69  210/ 19/ 23 1015.6F   4/ 5
KENOSHA   LAKESH 0400   73     210/ 12/ 20 1014.6
$$

TC  - TEMPERATURE IN CELSIUS
VSB - VISIBILITY IN STATUTE MILES
WCI - WIND CHILL INDEX
HX  - HEAT INDEX